587  
ASHW40 PHFO 190843  
RWRHI  
 
WEATHER ROUNDUP FOR HAWAII  
NATIONAL WEATHER SERVICE HONOLULU HI  
1000 PM HST WED SEP 18 2019  
 
THIS IS AN AUTOMATED REPORT THAT HAS NOT BEEN QUALITY CONTROLLED.  
 
NOTE..."FAIR" INDICATES FEW OR NO CLOUDS BELOW 12,000 FEET WITH NO  
SIGNIFICANT WEATHER AND/OR S TO VISIBILITY
.  
 
* - THESE SITES REPORT LIMITED FIELDS  
# - BUOY DATA PROVIDED BY PACIFIC ISLANDS OCEAN OBSERVING SYSTEM.  
 
HIZ001>004-190900-  
KAUAI-NIIHAU-  
 
CITY SKY/WX TMP DP RH WIND PRES REMARKS
 
LIHUE APT CLOUDY 81 76 84 E16 29.98F  
PORT ALLEN* N/A 79 N/A N/A E9 N/A  
POIPU* N/A 77 N/A N/A NE3G10 N/A  
PRINCEVILLE* N/A 77 N/A N/A SE6G12 N/A  
KOKOLE POINT* NOT AVBL  
MOLOAA DAIRY* N/A 81 73 78 E8G17 N/A  
WAIMEA HTS* N/A 75 73 94 NE3G9 N/A  
PUU OPAE* N/A 72 70 94 MISG N/A  
PUU LUA* NOT AVBL  
MAKAHA RIDGE* N/A 73 70 88 E1 N/A  

 
 
HIZ005>011-190900-  
OAHU-  
 
CITY SKY/WX TMP DP RH WIND PRES REMARKS
 
HONOLULU MOCLDY 76 70 82 E9 29.98S  
KALAELOA CLEAR 79 71 76 NE5 29.99S  
KANEOHE MCB MOCLDY 82 72 71 E7 29.97R  
WHEELER FIELD FAIR 76 70 80 E6 30.00S  
BELLOWS* N/A 82 N/A N/A NE17 N/A  
KAHUKU* N/A 79 N/A N/A NE7G14 N/A  
WHEELER* N/A 75 N/A N/A SE2G12 N/A  
WAIANAE HARBOR N/A 82 N/A N/A E6G12 N/A  
DILLINGHAM* N/A 77 68 73 E2 N/A  
KAHUKU TRN* N/A 77 72 83 E3G15 N/A  
KAWAILOA* NOT AVBL  
KII* N/A 81 73 78 E14 N/A  
MAKUA RANGE* N/A 75 68 78 SE3 N/A  
OAHU FOREST NW NOT AVBL  
SCHOFIELD BRK* N/A 73 68 83 W3 N/A  
SCHOFIELD S* NOT AVBL  
WAIANAE VLY* NOT AVBL  
KUAOKALA* N/A 77 66 69 E5G13 N/A  
HONOULIUULI* NOT AVBL  
MOKUOLOE IS* N/A 82 N/A N/A E8G14 N/A  
PALEHUA* N/A 70 66 88 NE15G24 N/A  
WAIAWA PHB* NOT AVBL  

 
 
HIZ012>013-190900-  
MOLOKAI-  
 
CITY SKY/WX TMP DP RH WIND PRES REMARKS
 
MOLOKAI AIRPT CLOUDY 81 67 62 N6 29.99S  
KALAUPAPA NOT AVBL  
MAKAPULAPAI* NOT AVBL  
MOLOKAI 1* NOT AVBL  
PUU ALII* N/A 63 63 100 NE2G10 N/A  

 
 
HIZ016-190900-  
KAHOOLAWE-  
 
CITY SKY/WX TMP DP RH WIND PRES REMARKS
 
KAHOOLAWE* NOT AVBL  
HAKIOAWA* NOT AVBL  
HONOKANAIA* NOT AVBL  
KANELOA* N/A 75 70 83 E17G29 30.04R  
KEALIALALO* NOT AVBL  
LUA MAKIKA* NOT AVBL  

 
 
HIZ014>015-190900-  
LANAI-  
 
CITY SKY/WX TMP DP RH WIND PRES REMARKS
 
LANAI CITY FAIR 72 72 100 E6 30.05R  
LANAI 1* NOT AVBL  

 
 
HIZ017>028-190900-  
MAUI-  
 
CITY SKY/WX TMP DP RH WIND PRES REMARKS
 
KAHULUI PTCLDY 82 63 52 NE9 29.97R  
KAPALUA-W MAUI NOT AVBL  
HANA AIRPORT CLOUDY 75 73 94 CALM 30.02F  
HANA* N/A 75 N/A N/A SE5G13 N/A  
HALEAKALA SUMM NOT AVBL  
MAALAEA BAY* N/A 82 N/A N/A N15G22 N/A  
HALEAKALA* NOT AVBL  
KAUPO GAP* NOT AVBL  
KULA 1* N/A 48 41 76 E3 N/A  

 
 
HIZ023>026-190900-  
BIG ISLAND OF HAWAII COAST AND LOWER SLOPES-  
 
CITY SKY/WX TMP DP RH WIND PRES REMARKS
 
KAILUA KONA MOCLDY 82 73 74 W7 29.96R  
HILO CLOUDY 78 70 76 W7 30.02R  
HONOKAA* NOT AVBL  
KAWAIHAE MWT* NOT AVBL  
KAWAIHAE* N/A 82 N/A N/A VRB2 29.96S  
SOUTH POINT* N/A 73 N/A N/A NE13G22 N/A  
UPOLU AIRPORT* NOT AVBL  
KAMUELA* SUNNY 68 64 88 NE10 30.10S  
HAKALAU* N/A 51 51 100 SW1 N/A  
KALOKO-HONOKO* N/A 79 75 89 S2 29.95S  
PALI 2* N/A 66 63 88 NE8G14 N/A  
KEALAKOMO* N/A 77 70 78 N10G20 N/A  
KAUPULEHU* N/A 73 70 88 S8 N/A  
KAPAPALA* N/A 69 67 94 N3 N/A  
LOWER KAHUKU* N/A 66 66 100 NW1 N/A  
PUHE CS* N/A 81 73 78 N1 N/A  
PUHO CS* N/A 75 73 93 NE3G12 N/A  
PTA KEAMUKU* N/A N/A N/A N/A NE5 N/A  
WAIKOLOA* N/A 75 66 73 E12G18 N/A  

 
 
HIZ027>028-190900-  
BIG ISLAND OF HAWAII INTERIOR AND SUMMMITS-  
 
CITY SKY/WX TMP DP RH WIND PRES REMARKS
 
BRADSHAW FIELD PTCLDY 59 55 88 S5 30.35S  
MK VISITOR CEN N/A 55 19 24 E2 N/A  
MAUNA KEA* N/A 41 16 36 N12 N/A  
MAUNA LOA* NOT AVBL  
MAUNA LOA 1* NOT AVBL  
PTA KIPUKA* N/A N/A N/A N/A NW1 N/A  
PTA RANGE 17* N/A 63 59 88 S2 N/A  
PTA WEST* N/A 64 63 94 S3 N/A  
NENE CABIN* N/A 54 54 100 NE3 N/A  
AHUMOA* N/A 55 55 99 CALM N/A  
PTA PORTABLE* NOT AVBL  
PUU MALI* N/A 54 52 94 S5 N/A  

 
 
HIC003-190900-  
NORTHWEST ISLANDS-  
 
CITY SKY/WX TMP DP RH WIND PRES REMARKS
 
MIDWAY ISLAND PTCLDY 81 72 74 E8 29.81R  
MIDWAY NOS* N/A 82 N/A N/A MISG 29.78S  
FRENCH FRIGATE NOT AVBL  

 
 
PHZ110>124-180-190900-  
BUOY REPORTS  
 
STATION/POSITION TIME TEMP WIND PRES WAVE SWELL
 
AIR SEA DIR/SP/G HT/PER HT/DIR  
(UTC) (F) (DEG/KT/KT) (MB) (FT/S) (FT/D)  
BUOY 51101 0830 82 130/ 23/ 27 1013.9F  
BUOY 51100 NOT AVBL  
BUOY 51002 0820 1014.8  
BUOY 51003 0820 82 83 110/ 16/ 19 1013.2  
BUOY 51004 0740 81 N/A 6/ 7  
WAIMEA BAY# 0812 79 N/A 4/12 2/320  
MOKAPU POINT# 0830 81 N/A 6/ 7 2/100  
LANAI# 0830 84 N/A 3/13 2/190  
BARBERS PT# 0830 83 N/A 4/12 2/200  
PAUWELA# NOT AVBL  
HILO# 0816 81 N/A 5/ 7 2/ 90  
KANEOHE BAY# 0830 81 N/A 4/ 7  
KANEOHE BAY 2# NOT AVBL  
HANALEI# 0800 N/A 4/ 7 2/330  
KAHULUI HARBOR 0754 81 30/ 5/ 7 1015.1R  
HONOLULU HARBOR 0754 79 83 60/ 5/ 8 1015.5R  
PEARL HARBOR# 0800 83 N/A 4/ 7 2/160  
KILO NALU NOT AVBL  
HILO HARBOR 0800 74 81 260/ 3/ 6 1016.1  
MOKUOLOE 0736 81 83 90/ 7/ 12 1015.5S  
NAWILIWILI 0754 80 150/ 4/ 5 1015.1R  
WHOTS BUOY NOT AVBL  
BUOY 51028 NOT AVBL  

 
   
.....................KEY.....................................
 
 
SKY/WX - SKY CONDITIONS/PRESENT WEATHER  
TMP - TEMPERATURE IN FAHRENHEIT  
DWPT - DEWPOINT IN FAHRENHEIT  
RH - RELATIVE HUMIDITY IN PERCENT  
WIND - DIRECTION AND SPEED /MPH FOR ISLANDS...KTS FOR BUOYS/  
PRES - MEAN SEA LEVEL PRESSURE IN INCHES OF HG  
VSB - VISIBILITY IN MILES  
HX - HEAT INDEX  
WCI - WIND CHILL INDEX  
VRB - VARIABLE WIND DIRECTION  
N/A - NOT AVAILABLE  
 
 
CLICK HERE TO GO TO PREVIOUS BULLETINS.

The Nexlab HI Page Main Text Page